Location: Newark
(34.6283°N, 36.0776°E)
Time: 13:29:14
(UTC+00:00)

SR - Pass Details

Date: 25 October 2019
Orbit: 574 x 882 km, 66.7° (Epoch: 14 November)

Event Time Altitude Azimuth Distance (km) Brightness Sun altitude
Rises 03:01:42 0° 340° (NNW) 3,470 ? -10.5°
Reaches altitude 10° 03:04:21 10° 348° (NNW) 2,541 ? -9.9°
Maximum altitude 03:09:55 40° 57° (ENE) 1,273 ? -8.8°
Drops below altitude 10° 03:15:21 10° 126° (SE) 2,490 ? -7.7°
Sets 03:17:56 0° 134° (SE) 3,394 ? -7.2°
